Tracking 19792 objects as of 16-Jul-2019
HD Live streaming from Space Station
objects crossing your sky now

CBERS 1 DEB

Track CBERS 1 DEB now!
10-day predictions


NORAD ID: 32065
Int'l Code: 1999-057QD
Perigee: 624.5 km
Apogee: 636.6 km
Inclination: 98.3 °
Period: 97.2 minutes
Semi major axis: 7001 km
RCS: 0.0008 m2 (small)
Launch date: October 14, 1999
Source: China/Brazil (CHBZ)
Launch site: Taiyaun Space Center, China (TSC)

Note: This is SATELLITE DEBRIS
aabbcc
Your satellite tracking list
Your tracking list is empty




NASA's NSSDC Master Catalog

Two Line Element Set (TLE):
1 32065U 99057QD  19197.50639428  .00001998  00000-0  25967-3 0  9999
2 32065  98.2840 218.2117 0008660 131.1579 229.0381 14.81866130642036
Source of the keplerian elements: AFSPC